User: anonymous   Login
Location: Alfortville
(48.8058°N, 2.4204°E)
Time: 08:49:07
(UTC+00:00)
Language:

LilacSat-2 - Orbit

View from above orbital plane
View from above orbital plane
View from above satellite
View from above satellite

Ground track
Ground track

The orbit data is extracted from the following two-line orbital elements,

1 40908U 15049K   23090.85570918  .00009126  00000-0  44216-3 0  9995
2 40908  97.5275  94.1846 0016322  98.2409  23.9970 15.18649744416051
Epoch (UTC): 31 March 2023 20:32:13
Eccentricity: 0.0016322
inclination: 97.5275°
perigee height: 498 km
apogee height: 521 km
right ascension of ascending node: 94.1846°
argument of perigee: 98.2409°
revolutions per day: 15.18649744
mean anomaly at epoch: 23.9970°
orbit number at epoch: 41605

The dashed part of the orbit path shows where the satellite is in the earth's shadow,  

DLR